sat.trackr.live / text

‹ back to catalog

STARLINK-3984

NORAD 52621 · 2022-052Z

PAYLOAD ACTIVE UNKNOWN

§ Identity

Operator
Country
US
Launch date
2022-05-14
Launch site
AFETR
Launch vehicle
Mass (kg)
RCS (m²)

Purposes: comms

External: N2YO · Heavens-Above · Gunter

§ Orbital elements

Epoch: 2026-09-19T22:59:32.697312Z

Period
93.79 min
Inclination
53.1592°
Eccentricity
0.0001026
Mean motion
15.35397076 rev/d
Perigee alt
459.0 km
Apogee alt
460.4 km
Semi-major
6,837.9 km
B*
1.3125e-5
RAAN
105.2327°
Arg perigee
102.7037°
Mean anomaly
257.4081°
Rev number
24,047

§ Raw data

STARLINK-39841 52621U 22052Z   26262.95801733  .00000077  00000+0  13125-4 0  99902 52621  53.1592 105.2327 0001026 102.7037 257.4081 15.35397076240472

JSON: /api/v1/satellites/52621 · /tle

For live sub-satellite position, see the globe view (requires WebGL).

§ Visibility from observer

Set your observer location to see the next 7 days of passes ≥ 10°. The values pass through the URL so the page stays shareable.

No JS? Fill the form by hand. The geolocation button needs JavaScript.